Location: ??????
(38.0677°N, 22.9870°E)
Time: 17:03:14
(UTC+00:00)

Cosmos 1741 Rocket - Pass Details

Date: 23 May 2024
Orbit: 758 x 781 km, 74.0° (Epoch: 24 June)

Event Time Altitude Azimuth Distance (km) Brightness Sun altitude
Exits shadow 00:11:07 79° 134° (SE) 782 3.9 -26.2°
Maximum altitude 00:11:17 80° 107° (ESE) 779 3.9 -26.2°
Drops below altitude 10° 00:16:32 10° 21° (NNE) 2,313 7.5 -25.7°
Sets 00:18:55 0° 20° (NNE) 3,247 8.6 -25.5°
